www.pogodaiklimat.ru

Погода и климат >> Архив погоды >> Россия >> Свердловская область >> Екатеринбург


АРХИВ ПОГОДЫ в Екатеринбурге

Время (UTC), дата Ветер
(напр.,м/с)
 
Видим.   Явления Облачность Т
(С)
Тd
(С)
f
(%)
Тe
(С)
Тes
(С)
Комфортность P
(гПа)
Po
(гПа)
Тmin
(С)
Tmax
(С)
R
(мм)
R24
(мм)
S
(см)
00 10.07 З 1 20 км 3/3 600 м
[Sc]
+17.1 +14.5 85 +18 +18 тепло 1006.2 973.8
03 10.07 ЮВ 1 10 км 4/3 600 м
[Cu med, cong Cs]
+21.3 +15.6 70 +25 +28 комфорт 1006.0 974.1 +17.0
06 10.07 СЗ 2
{12}
10 км гроза, ливневой дождь 8/6 600 м
[Cb cap Cs]
+18.7 +13.7 73 +20 +25 по сезону 1006.7 974.5
09 10.07 ЮВ 2 20 км гроза, ливневой дождь 9/9 600 м
[Cb cap]
+19.5 +15.5 78 +22 +23 комфорт 1006.7 974.6
12 10.07 ЮВ 1
{11}
20 км в посл. час гроза {ливн. осадки} 9/9 600 м
[Cb calv]
+16.8 +16.0 95 +18 +18 холодно 1006.2 973.7
15 10.07 ЮЗ 1 50 км 8/3 600 м
[Cb calv Cs]
+21.1 +16.7 76 +25 +25 комфорт 1006.3 974.3 +27.0 13
18 10.07 СЗ 2 10 км 6/4 600 м
[Cb calv Ci fib]
+19.0 +15.8 82 +21 +21 комфорт 1006.8 974.5
21 10.07 СЗ 1 10 км {ливн. осадки} 3/3 600 м
[Sc Ci fib]
+16.1 +13.6 85 +17 +17 по сезону 1006.9 974.3
00 11.07 СЗ 3 4000 м 10/10 600 м
[Sc]
+15.3 +14.6 96 +15 +15 по сезону 1007.0 974.3
03 11.07 СЗ 1 10 км 10/10 600 м
[Sc]
+16.8 +15.3 91 +18 +18 по сезону 1006.7 974.2 +14.4
06 11.07 З 1 10 км 8/8 600 м
[Cu hum]
+19.2 +16.7 85 +22 +25 комфорт 1008.0 975.6
09 11.07 З 2 20 км 9/9 600 м
[Cu med, cong]
+24.2 +14.7 55 +27 +28 жарко 1005.8 974.1
12 11.07 З 1 20 км гроза без осадков 9/9 600 м
[Cb calv]
+24.1 +15.5 59 +27 +28 жарко 1005.6 973.9
15 11.07 СЗ 1 20 км в посл. час гроза 8/6 600 м
[Sc Cs]
+20.2 +13.5 65 +23 +24 комфорт 1006.4 974.2 +24.7 0.0
18 11.07 ЮЗ 1 10 км {гроза} 9/6 600 м
[Sc Ac trans Ci fib]
+18.4 +14.1 76 +20 +20 тепло 1006.6 974.2
21 11.07 Ю 1 10 км 6/0
[As trans Ci fib]
+17.6 +15.6 88 +19 +19 тепло 1006.3 973.9
00 12.07 штиль 0 500 м туман 10/10 200 м
[Sc]
+16.3 +14.7 90 +16 +16 тепло 1006.5 973.9
03 12.07 Ю 1 4000 м в посл. час дождь {туман} 10/10 100 м
[St]
+16.9 +16.2 96 +18 +18 по сезону 1007.1 974.6 +16.2 0.1
06 12.07 С 1 4000 м ливневой дождь, в посл. час гроза 10/10 300 м
[Cb cap]
+17.1 +16.8 98 +18 +18 прохладно 1007.9 975.4
09 12.07 В 2 20 км {ливн. осадки} 9/9 300 м
[Cb calv]
+19.6 +17.0 85 +22 +24 комфорт 1007.0 974.8
12 12.07 В 2 10 км {ливн. осадки} 10/8 600 м
[Cb calv Cs]
+21.3 +17.1 77 +25 +26 комфорт 1006.4 974.5
15 12.07 В 3 20 км гроза без осадков 9/9 600 м
[Cb calv]
+20.7 +16.2 75 +24 +24 комфорт 1006.4 974.4 +22.4 15
18 12.07 СЗ 2 10 км {гроза, ливн. осадки} 9/9 600 м
[Cb calv]
+18.7 +15.8 83 +20 +20 тепло 1007.2 974.9
21 12.07 СВ 1 10 км слабый ливневой дождь 9/9 600 м
[Cb cap]
+17.3 +14.9 86 +18 +18 тепло 1007.4 974.9
00 13.07 штиль 0 4000 м дымка {ливн. осадки} 10/10 300 м
[St]
+16.6 +15.6 94 +16 +16 тепло 1007.3 974.8
03 13.07 штиль 0 10 км 10/10 300 м
[St]
+16.7 +15.7 94 +17 +17 по сезону 1007.8 975.3 +16.1 3
06 13.07 СЗ 3 10 км {морось} 10/0
[As op]
+18.8 +16.6 87 +20 +22 по сезону 1008.0 975.6
09 13.07 ЮЗ 2 10 км 9/8 600 м
[Cb calv Cs]
+23.2 +17.9 72 +29 +31 душно 1007.6 975.8
12 13.07 В 1 10 км 8/8 600 м
[Cb calv Cs]
+24.4 +15.6 58 +27 +29 жарко 1006.8 975.2
15 13.07 В 2 20 км 9/3 600 м
[Sc Cs]
+23.9 +15.4 59 +27 +27 жарко 1007.4 975.7 +25.1
18 13.07 С 1
{12}
4000 м гроза, ливневой дождь 9/9 600 м
[Cb cap]
+18.3 +16.2 88 +20 +20 тепло 1008.7 976.3
21 13.07 штиль 0 10 км гроза без осадков {ливн. осадки} 8/8 600 м
[Cb cap Cs]
+17.2 +15.2 88 +17 +17 по сезону 1008.7 976.2
00 14.07 В 1 4000 м гроза без осадков {ливн. осадки} 10/10 600 м
[Cb cap]
+17.5 +15.9 90 +19 +19 тепло 1009.4 977.0
03 14.07 В 1 4000 м 10/10 600 м
[Cb cap]
+18.6 +17.0 90 +21 +21 комфорт 1009.8 977.5 +17.0 9
06 14.07 В 1 4000 м дымка {гроза, ливн. осадки} 9/9 600 м
[Cb calv Ac trans Ci fib]
+22.4 +17.4 73 +27 +29 душно 1009.8 977.9
09 14.07 В 3 10 км 9/9 600 м
[Cb calv]
+25.9 +14.6 50 +28 +30 жарко 1009.5 977.9
12 14.07 В 3
{10}
20 км 9/8 600 м
[Cu hum Ci fib]
+26.6 +12.2 41 +28 +29 жарко 1009.0 977.5
15 14.07 В 3 20 км 8/8 1000 м
[Cu hum Ci fib]
+24.3 +12.5 48 +26 +26 жарко 1010.2 978.4 +27.0 0.0
18 14.07 В 2 10 км 8/0
[Cc]
+21.1 +13.5 62 +24 +24 комфорт 1011.4 979.2
21 14.07 В 2 10 км ясно +18.9 +12.9 68 +20 +20 тепло 1012.1 979.7
00 15.07 С 1 20 км 6/0
[Ac trans Ci fib]
+16.8 +12.0 73 +18 +18 тепло 1013.1 980.4
03 15.07 50 км 8/0
[Ci fib]
+19.9 +12.0 60 1013.5 981.1 +16.1
06 15.07 В 3 50 км 6/3 600 м
[Cu med, cong]
+24.5 +11.1 43 +26 +32 жарко 1013.1 981.2
09 15.07 В 3 50 км 8/8 600 м
[Cu hum]
+25.8 +9.7 36 +26 +29 жарко 1013.0 981.3
12 15.07 С 2 50 км 8/8 600 м
[Cu hum]
+26.6 +9.3 34 +22 +23 комфорт 1013.0 981.3
15 15.07 В 2 50 км 3/3 600 м
[Cu hum]
+24.3 +9.9 40 +25 +26 комфорт 1013.1 981.2 +27.0
18 15.07 В 2 10 км 8/8 600 м
[Sc]
+21.4 +11.7 54 +23 +23 комфорт 1014.7 982.4
21 15.07 ЮВ 1 10 км ясно +18.2 +11.5 65 +20 +20 тепло 1015.6 983.0
00 16.07 ЮВ 1 10 км ясно +18.2 +11.5 65 +20 +20 тепло 1015.6 983.0
03 16.07 штиль 0 50 км ясно +20.9 +11.8 56 +23 +29 комфорт 1016.4 984.0 +15.9
06 16.07 ЮВ 2 50 км 1/1 600 м
[Cu med, cong]
+23.8 +9.1 39 +25 +36 комфорт 1016.0 983.9
09 16.07 ЮВ 2 50 км ясно +25.6 +9.1 35 +26 +40 жарко 1015.2 983.3
12 16.07 В 3 50 км ясно +25.6 +9.0 35 +26 +32 жарко 1014.5 982.7
15 16.07 ЮВ 2 50 км ясно +24.3 +10.4 41 +25 +26 комфорт 1014.4 982.4 +26.2
18 16.07 В 1 10 км ясно +20.7 +12.1 58 +24 +24 комфорт 1015.5 983.1

 

Местоположение метеостанции Екатеринбург (Свердловская область, Россия): широта 56.83 долгота 60.63 высота над уровнем моря 281 м.

В архиве по умолчанию представлена погода в Екатеринбурге за последнюю неделю. Архивные данные за месяц целиком и за предыдущие месяцы, начиная с января 2011 года, Вы можете получить, выбрав интересующий диапазон дат из раскрывающегося списка и нажав кнопку "Ввод!".


*Определитесь, кто Вы:
робот инопланетянин человек

Внимание! Время в таблицах - всемирное. Для получения местного времени необходимо прибавить поправку, которая в Екатеринбурге равна 5 ч.

Смотрите также архив погоды в соседних городах и на ближайших метеорологических станциях:

Погода в Екатеринбурге (Бот.сад) (Свердловская область, Россия) (5 км)
Погода в Верхнем Дуброво (Свердловская область, Россия) (29 км)
Погода в Сысерти (Свердловская область, Россия) (38 км)
Погода в Ревде (Свердловская область, Россия) (40 км)
Погода в Мариинске (Свердловская область, Россия) (52 км)
Погода в Невьянске (Свердловская область, Россия) (78 км)
Погода в Верхнем Уфалее (Челябинская область, Россия) (86 км)
Погода в Каменск-Уральском (Свердловская область, Россия) (88 км)
Погода в Бисерти (Свердловская область, Россия) (95 км)
Погода в Артемовском (Свердловская область, Россия) (98 км)

Пояснения к столбцам:

Ветер - указаны скорость ветра в м/с - средняя за 10 мин, порывы в срок и между сроками (в фигурных скобках) и направление, откуда дует ветер: С - северный, СВ - северо-восточный, В - восточный, ЮВ - юго-восточный, Ю - южный, ЮЗ - юго-западный, З - западный, СЗ - северо-западный.
Видимость - горизонтальная дальность видимости в метрах или километрах. При видимости от 1 до 10 км при отсутствии осадков обычно наблюдается дымка, при ухудшении видимости до 1 км и менее - туман. В сухую погоду видимость может ухудшаться дымом, пылью или мглою.
Явления - указаны атмосферные явления, наблюдавшиеся в срок или в последний час перед сроком; фигурными скобками обозначены явления, наблюдавшиеся между сроками (за 1-3 часа до срока); квадратными скобками обозначены град или гололедные отложения с указанием их диаметра в мм.
Облачность - указаны через наклонную черту общая и нижняя облачность в баллах и высота нижней границы облаков в метрах; квадратными скобками обозначены формы облаков: Ci - перистые, Cs - перисто-слоистые, Cc - перисто-кучевые, Ac - высококучевые, As - высокослоистые, Sc - слоисто-кучевые, Ns - слоисто-дождевые, Cu - кучевые, Cb - кучево-дождевые. Подробнее классификацию облаков см. в Атласе облаков (PDF).
T - Температура воздуха - температура, измеренная на высоте 2 м над землей.
Td - Температура точки росы - температура, при понижении до которой содержащийся в воздухе водяной пар достигнет насыщения.
f - Относительная влажность воздуха - влажноcть воздуха, измеренная на высоте 2 м над землей.
Te - Эффективная температура - температура, которую ощущает одетый по сезону человек в тени. Характеристика душности погоды. При расчете учитывается влияние влажности воздуха и скорости ветра на теплоощущения человека.
Tes - Эффективная температура на солнце - температура, которую ощущает человек, с поправкой на солнечный нагрев. Характеристика знойности погоды. Зависит от высоты солнца над горизонтом, облачности и скорости ветра. Ночью, в пасмурную погоду, а также при ветре 12 м/с и более поправка равна нулю.
P - Атмосферное давление - приведенное к уровню моря атмосферное давление.
Po - Атмосферное давление - измеренное на уровне метеостанции атмосферное давление.
Tmin - Минимальная температура - минимум температуры воздуха на высоте 2 м над землей.
Tmax - Максимальная температура - максимум температуры воздуха на высоте 2 м над землей.
R - Количество осадков - Количество выпавших осадков за период времени, мм. При наведении курсора мыши на число - период времени, за который выпало указанное количество осадков.
R24 - Количество осадков - Количество выпавших осадков за 24 часа, мм.
S - Снежный покров - Высота снежного покрова, см. При наведении курсора мыши на число - состояние снежного покрова и степень покрытия местности в баллах.